| time (UTC) | temp F | wind direction | speed MPH | gust MPH | rain 1hr in | rain 24hr in | rain mn in | humidity % | barometer mb |
| 20260507063045 | 48 | 311 | 2.0 | 4.0 | 0.00 | 0.18 | 0.00 | 92 | 1014.3 |
| 20260507062047 | 48 | 78 | 1.0 | 4.0 | 0.00 | 0.19 | 0.00 | 93 | 1014.1 |
| 20260507061047 | 48 | 151 | 1.0 | 4.0 | 0.00 | 0.19 | 0.00 | 94 | 1014.2 |
| 20260507060045 | 48 | 343 | 1.0 | 3.0 | 0.00 | 0.19 | 0.00 | 94 | 1014.1 |
| 20260507054046 | 47 | 321 | 2.0 | 5.0 | 0.00 | 0.20 | 0.00 | 96 | 1013.9 |
| 20260507053043 | 47 | 319 | 2.0 | 4.0 | 0.00 | 0.20 | 0.00 | 96 | 1013.9 |
| 20260507052046 | 47 | 314 | 2.0 | 4.0 | 0.00 | 0.21 | 0.00 | 97 | 1013.8 |
| 20260507051045 | 47 | 328 | 1.0 | 3.0 | 0.00 | 0.23 | 0.00 | 97 | 1013.6 |
| 20260507050043 | 47 | 316 | 1.0 | 3.0 | 0.00 | 0.24 | 0.00 | 98 | 1013.5 |
| 20260507044046 | 46 | 330 | 1.0 | 2.0 | 0.00 | 0.26 | 0.00 | 99 | 1013.2 |
| 20260507043045 | 46 | 337 | 1.0 | 2.0 | 0.00 | 0.27 | 0.00 | 98 | 1013.1 |
| 20260507042047 | 46 | 320 | 1.0 | 2.0 | 0.00 | 0.27 | 0.00 | 98 | 1013.0 |
| 20260507041044 | 46 | 316 | 1.0 | 2.0 | 0.00 | 0.28 | 0.00 | 98 | 1012.9 |
| 20260507034044 | 46 | 310 | 1.0 | 2.0 | 0.00 | 0.30 | 0.00 | 98 | 1012.8 |
| 20260507033044 | 46 | 315 | 0.0 | 2.0 | 0.00 | 0.31 | 0.00 | 98 | 1012.8 |
| 20260507031046 | 47 | 306 | 1.0 | 3.0 | 0.00 | 0.33 | 0.00 | 98 | 1012.7 |
| 20260507030045 | 47 | 302 | 2.0 | 3.0 | 0.00 | 0.35 | 0.00 | 97 | 1012.6 |
| 20260507024044 | 47 | 293 | 2.0 | 3.0 | 0.00 | 0.39 | 0.00 | 97 | 1012.6 |
| 20260507022045 | 47 | 288 | 3.0 | 4.0 | 0.00 | 0.44 | 0.00 | 97 | 1012.4 |
| 20260507021047 | 47 | 291 | 3.0 | 4.0 | 0.00 | 0.45 | 0.00 | 96 | 1012.4 |
| 20260507020047 | 47 | 292 | 3.0 | 4.0 | 0.00 | 0.46 | 0.00 | 96 | 1012.4 |
| 20260507015045 | 47 | 291 | 2.0 | 3.0 | 0.00 | 0.47 | 0.00 | 96 | 1012.4 |
| 20260507014042 | 47 | 288 | 2.0 | 4.0 | 0.00 | 0.48 | 0.00 | 97 | 1012.4 |
| 20260507013043 | 47 | 290 | 3.0 | 4.0 | 0.00 | 0.50 | 0.00 | 97 | 1012.4 |
| 20260507012042 | 47 | 291 | 2.0 | 4.0 | 0.00 | 0.51 | 0.00 | 97 | 1012.3 |
| 20260507011047 | 47 | 300 | 3.0 | 4.0 | 0.00 | 0.52 | 0.00 | 97 | 1012.2 |
| 20260507010046 | 47 | 300 | 2.0 | 4.0 | 0.00 | 0.54 | 0.00 | 97 | 1012.1 |
| 20260507004048 | 47 | 303 | 2.0 | 3.0 | 0.00 | 0.55 | 0.00 | 97 | 1012.2 |
| 20260507003044 | 47 | 309 | 1.0 | 3.0 | 0.00 | 0.57 | 0.00 | 97 | 1012.2 |
| 20260507002044 | 47 | 314 | 1.0 | 2.0 | 0.00 | 0.58 | 0.00 | 97 | 1012.1 |
| 20260507001043 | 46 | 329 | 1.0 | 3.0 | 0.00 | 0.60 | 0.00 | 97 | 1012.1 |
| 20260507000050 | 46 | 356 | 1.0 | 3.0 | 0.00 | 0.61 | 0.00 | 97 | 1012.1 |
| 20260506235047 | 46 | 2 | 1.0 | 3.0 | 0.00 | 0.61 | 0.00 | 97 | 1012.0 |
| 20260506234048 | 46 | 351 | 2.0 | 4.0 | 0.00 | 0.61 | 0.00 | 97 | 1012.0 |
| 20260506232046 | 46 | 352 | 2.0 | 4.0 | 0.00 | 0.63 | 0.00 | 96 | 1011.9 |
| 20260506231047 | 46 | 352 | 2.0 | 5.0 | 0.00 | 0.64 | 0.00 | 97 | 1011.9 |
| 20260506230050 | 46 | 356 | 2.0 | 6.0 | 0.00 | 0.65 | 0.00 | 96 | 1011.8 |
| 20260506225046 | 46 | 351 | 2.0 | 6.0 | 0.00 | 0.65 | 0.00 | 96 | 1011.7 |
| 20260506223046 | 46 | 352 | 2.0 | 6.0 | 0.00 | 0.67 | 0.00 | 96 | 1011.4 |
| 20260506221046 | 47 | 326 | 2.0 | 5.0 | 0.00 | 0.69 | 0.00 | 97 | 1011.2 |
| 20260506220055 | 47 | 336 | 2.0 | 6.0 | 0.00 | 0.70 | 0.00 | 96 | 1011.1 |
| 20260506215049 | 47 | 346 | 2.0 | 6.0 | 0.00 | 0.71 | 0.70 | 96 | 1011.0 |
| 20260506214049 | 47 | 353 | 2.0 | 5.0 | 0.00 | 0.72 | 0.70 | 96 | 1010.9 |
| 20260506212050 | 47 | 356 | 2.0 | 5.0 | 0.00 | 0.72 | 0.70 | 96 | 1010.8 |
| 20260506211050 | 47 | 353 | 3.0 | 7.0 | 0.00 | 0.73 | 0.70 | 96 | 1010.8 |
| 20260506210049 | 47 | 355 | 3.0 | 5.0 | 0.00 | 0.74 | 0.70 | 95 | 1010.9 |
| 20260506204048 | 47 | 359 | 3.0 | 5.0 | 0.00 | 0.76 | 0.70 | 95 | 1010.8 |
| 20260506203050 | 47 | 9 | 2.0 | 6.0 | 0.00 | 0.76 | 0.70 | 95 | 1010.7 |
| 20260506202051 | 47 | 2 | 3.0 | 6.0 | 0.00 | 0.77 | 0.70 | 95 | 1010.7 |
| 20260506201051 | 47 | 6 | 2.0 | 6.0 | 0.00 | 0.78 | 0.70 | 95 | 1010.7 |
| 20260506194052 | 48 | 4 | 2.0 | 6.0 | 0.00 | 0.80 | 0.70 | 94 | 1010.4 |
| 20260506193050 | 48 | 5 | 3.0 | 7.0 | 0.00 | 0.81 | 0.70 | 94 | 1010.3 |
| 20260506192047 | 48 | 10 | 2.0 | 6.0 | 0.00 | 0.82 | 0.70 | 94 | 1010.2 |
| 20260506191049 | 48 | 157 | 3.0 | 7.0 | 0.00 | 0.83 | 0.70 | 94 | 1010.1 |
| 20260506190051 | 48 | 10 | 3.0 | 6.0 | 0.00 | 0.83 | 0.70 | 94 | 1010.0 |
| 20260506185049 | 48 | 26 | 3.0 | 8.0 | 0.00 | 0.84 | 0.70 | 94 | 1010.0 |
| 20260506183050 | 48 | 9 | 3.0 | 6.0 | 0.00 | 0.85 | 0.70 | 94 | 1009.8 |
| 20260506182049 | 48 | 5 | 3.0 | 8.0 | 0.00 | 0.86 | 0.70 | 93 | 1009.6 |
| 20260506181046 | 49 | 2 | 3.0 | 7.0 | 0.00 | 0.87 | 0.70 | 91 | 1009.5 |
| 20260506180048 | 49 | 356 | 2.0 | 5.0 | 0.00 | 0.87 | 0.70 | 90 | 1009.4 |
| 20260506175050 | 49 | 3 | 2.0 | 4.0 | 0.00 | 0.87 | 0.70 | 90 | 1009.3 |
| 20260506174048 | 49 | 358 | 2.0 | 4.0 | 0.00 | 0.87 | 0.70 | 91 | 1009.1 |
| 20260506173047 | 49 | 9 | 2.0 | 5.0 | 0.00 | 0.87 | 0.70 | 92 | 1009.1 |
| 20260506170045 | 49 | 1 | 2.0 | 5.0 | 0.00 | 0.87 | 0.70 | 91 | 1008.9 |
| 20260506165045 | 49 | 1 | 2.0 | 4.0 | 0.00 | 0.87 | 0.70 | 90 | 1008.9 |
| 20260506164046 | 50 | 186 | 2.0 | 5.0 | 0.00 | 0.87 | 0.70 | 91 | 1008.8 |
| 20260506163046 | 50 | 2 | 2.0 | 6.0 | 0.00 | 0.87 | 0.70 | 91 | 1008.7 |
| 20260506162049 | 50 | 3 | 3.0 | 6.0 | 0.00 | 0.87 | 0.70 | 90 | 1008.7 |
| 20260506161046 | 50 | 7 | 3.0 | 11.0 | 0.00 | 0.87 | 0.70 | 91 | 1008.7 |
| 20260506160046 | 50 | 359 | 4.0 | 9.0 | 0.00 | 0.87 | 0.70 | 90 | 1008.6 |
| 20260506155046 | 50 | 9 | 4.0 | 9.0 | 0.00 | 0.87 | 0.70 | 90 | 1008.6 |
| 20260506154052 | 50 | 11 | 4.0 | 11.0 | 0.00 | 0.87 | 0.70 | 90 | 1008.5 |
| 20260506153046 | 50 | 21 | 5.0 | 10.0 | 0.00 | 0.87 | 0.70 | 90 | 1008.5 |
| 20260506152048 | 51 | 274 | 5.0 | 10.0 | 0.00 | 0.87 | 0.70 | 91 | 1008.4 |
| 20260506151047 | 50 | 10 | 4.0 | 10.0 | 0.00 | 0.87 | 0.70 | 91 | 1008.4 |
| 20260506145048 | 50 | 11 | 5.0 | 11.0 | 0.00 | 0.87 | 0.70 | 91 | 1008.4 |
| 20260506144046 | 51 | 263 | 5.0 | 10.0 | 0.00 | 0.87 | 0.70 | 92 | 1008.3 |
| 20260506143046 | 50 | 6 | 4.0 | 10.0 | 0.00 | 0.87 | 0.70 | 92 | 1008.3 |
| 20260506142046 | 50 | 16 | 4.0 | 8.0 | 0.01 | 0.87 | 0.70 | 94 | 1008.4 |
| 20260506141047 | 50 | 304 | 4.0 | 10.0 | 0.01 | 0.87 | 0.70 | 94 | 1008.4 |
| 20260506140051 | 50 | 14 | 4.0 | 8.0 | 0.01 | 0.87 | 0.70 | 96 | 1008.4 |
| 20260506135047 | 49 | 15 | 4.0 | 10.0 | 0.01 | 0.87 | 0.70 | 96 | 1008.4 |
| 20260506134047 | 49 | 306 | 3.0 | 8.0 | 0.01 | 0.87 | 0.70 | 97 | 1008.4 |
| 20260506133048 | 49 | 10 | 4.0 | 11.0 | 0.01 | 0.87 | 0.70 | 98 | 1008.4 |
| 20260506131048 | 49 | 23 | 5.0 | 13.0 | 0.01 | 0.86 | 0.69 | 96 | 1008.3 |
| 20260506130045 | 50 | 57 | 4.0 | 9.0 | 0.02 | 0.86 | 0.69 | 96 | 1008.1 |
| 20260506125045 | 50 | 51 | 5.0 | 9.0 | 0.02 | 0.86 | 0.69 | 96 | 1008.0 |
| 20260506124047 | 51 | 11 | 4.0 | 12.0 | 0.02 | 0.86 | 0.69 | 95 | 1007.9 |
| 20260506123046 | 51 | 5 | 5.0 | 10.0 | 0.02 | 0.86 | 0.69 | 97 | 1007.8 |
| 20260506122046 | 50 | 26 | 5.0 | 13.0 | 0.02 | 0.86 | 0.69 | 96 | 1007.8 |
| 20260506120044 | 51 | 337 | 4.0 | 9.0 | 0.02 | 0.85 | 0.69 | 96 | 1007.5 |
| 20260506115045 | 51 | 332 | 4.0 | 8.0 | 0.02 | 0.84 | 0.68 | 96 | 1007.4 |
| 20260506112048 | 50 | 331 | 4.0 | 9.0 | 0.02 | 0.83 | 0.67 | 95 | 1007.4 |
| 20260506111048 | 51 | 1 | 4.0 | 8.0 | 0.03 | 0.83 | 0.67 | 95 | 1007.3 |
| 20260506110045 | 52 | 25 | 4.0 | 8.0 | 0.02 | 0.83 | 0.66 | 96 | 1007.3 |
| 20260506105046 | 51 | 248 | 4.0 | 9.0 | 0.03 | 0.83 | 0.66 | 96 | 1007.3 |
| 20260506104044 | 51 | 340 | 3.0 | 8.0 | 0.02 | 0.82 | 0.65 | 97 | 1007.4 |
| 20260506103048 | 50 | 339 | 3.0 | 8.0 | 0.03 | 0.82 | 0.65 | 98 | 1007.3 |
| 20260506102046 | 50 | 337 | 3.0 | 7.0 | 0.03 | 0.82 | 0.65 | 98 | 1007.2 |
| 20260506101045 | 50 | 342 | 3.0 | 8.0 | 0.02 | 0.81 | 0.65 | 98 | 1007.2 |
| 20260506100044 | 50 | 333 | 3.0 | 7.0 | 0.02 | 0.80 | 0.64 | 98 | 1007.1 |
| 20260506095047 | 50 | 339 | 3.0 | 6.0 | 0.03 | 0.80 | 0.64 | 98 | 1007.1 |
| 20260506094044 | 50 | 352 | 3.0 | 8.0 | 0.03 | 0.80 | 0.63 | 98 | 1007.0 |
| 20260506093045 | 50 | 349 | 3.0 | 6.0 | 0.04 | 0.80 | 0.63 | 99 | 1007.0 |
| 20260506092046 | 49 | 358 | 3.0 | 9.0 | 0.04 | 0.79 | 0.62 | 99 | 1006.9 |
| 20260506090045 | 49 | 344 | 3.0 | 7.0 | 0.05 | 0.79 | 0.62 | 99 | 1006.8 |
| 20260506085047 | 48 | 349 | 3.0 | 6.0 | 0.05 | 0.78 | 0.61 | 10 | 1006.8 |
| 20260506083043 | 48 | 97 | 4.0 | 10.0 | 0.05 | 0.76 | 0.60 | 10 | 1006.6 |
| 20260506082045 | 48 | 348 | 3.0 | 6.0 | 0.06 | 0.76 | 0.59 | 10 | 1006.5 |
| 20260506081044 | 48 | 206 | 3.0 | 8.0 | 0.05 | 0.75 | 0.58 | 10 | 1006.4 |
| 20260506073044 | 48 | 12 | 3.0 | 8.0 | 0.04 | 0.72 | 0.56 | 10 | 1006.1 |
| 20260506071044 | 48 | 344 | 3.0 | 9.0 | 0.02 | 0.70 | 0.54 | 10 | 1006.0 |